Date String (YYYY-MM-DD hh:mm:ss) UTC,Instrument flags,Ambient pressure (hPa),Sample flow (lpm),Bypass flow (lpm),Sample temperature (°C),Ambient temperature (°C),ASC tube jacket temperature (°C),LED temperature (°C),Box temperature (°C),Sample RH (%),Span deviation,Mass concentration (μg/m³),Mass concentration (μg/m³),Mass concentration (μg/m³)
DateTimeUTC,F1_M11,P_M11,Q1_M11,Q2_M11,T1_M11,T2_M11,T3_M11,T4_M11,T5_M11,U1_M11,ZSPAN_M11,X0_M11,X2_M11,X1_M11
2023-05-01 14:00:00,,0828.6,5.00,0.00,26.3,24.7,00.0,34.6,27.8,12.1,0000.0,0012.91,0003.80,0002.27
2023-05-01 14:01:00,,0828.6,5.00,0.00,26.3,24.7,00.0,34.6,27.8,12.3,0000.0,0012.33,0003.81,0002.28
2023-05-01 14:02:00,,0828.6,5.00,0.00,26.3,24.7,00.0,34.6,27.8,12.2,0000.0,0013.23,0003.83,0002.27
2023-05-01 14:03:00,,0828.6,5.00,0.00,26.3,24.8,00.0,34.6,27.9,11.9,0000.0,0012.89,0003.85,0002.27
2023-05-01 14:04:00,,0828.6,5.00,0.00,26.2,24.7,00.0,34.6,27.9,12.1,0000.0,0012.56,0003.80,0002.28
2023-05-01 14:05:00,,0828.6,4.99,0.00,26.2,24.7,00.0,34.6,27.9,12.3,0000.0,0013.03,0003.80,0002.29
2023-05-01 14:06:00,,0828.6,4.99,0.00,26.2,24.7,00.0,34.6,27.8,12.2,0000.0,0012.79,0003.76,0002.30
2023-05-01 14:07:00,,0828.6,5.00,0.00,26.2,24.7,00.0,34.6,27.8,12.2,0000.0,0011.37,0003.75,0002.30
2023-05-01 14:08:00,,0828.6,5.00,0.00,26.2,24.6,00.0,34.6,27.8,12.1,0000.0,0011.60,0003.75,0002.31
2023-05-01 14:09:00,,0828.6,5.01,0.00,26.2,24.6,00.0,34.6,27.8,12.1,0000.0,0011.55,0003.70,0002.30
2023-05-01 14:10:00,,0828.6,5.00,0.00,26.2,24.6,00.0,34.6,27.8,12.2,0000.0,0011.34,0003.69,0002.30
2023-05-01 14:11:00,,0828.6,5.00,0.00,26.2,24.6,00.0,34.6,27.8,12.2,0000.0,0011.44,0003.71,0002.33
2023-05-01 14:12:00,,0828.6,5.00,0.00,26.2,24.6,00.0,34.6,27.8,12.1,0000.0,0011.72,0003.71,0002.33
2023-05-01 14:13:00,,0828.6,5.00,0.00,26.2,24.6,00.0,34.6,27.8,12.2,0000.0,0010.93,0003.73,0002.35
2023-05-01 14:14:00,,0828.6,4.99,0.00,26.2,24.7,00.0,34.6,27.8,12.3,0000.0,0011.01,0003.73,0002.37
2023-05-01 14:15:00,,0828.6,5.00,0.00,26.2,24.7,00.0,34.5,27.8,12.4,0000.0,0011.12,0003.73,0002.36
2023-05-01 14:16:00,,0828.6,5.00,0.00,26.2,24.6,00.0,34.5,27.8,12.5,0000.0,0011.18,0003.74,0002.35
2023-05-01 14:17:00,,0828.6,5.00,0.00,26.2,24.6,00.0,34.5,27.7,12.5,0000.0,0011.59,0003.77,0002.36
2023-05-01 14:18:00,,0828.6,5.00,0.00,26.2,24.5,00.0,34.5,27.7,12.4,0000.0,0011.40,0003.76,0002.38
2023-05-01 14:19:00,,0828.6,5.00,0.00,26.1,24.5,00.0,34.5,27.7,12.3,0000.0,0011.39,0003.83,0002.40
2023-05-01 14:20:00,,0828.5,5.00,0.00,26.2,24.5,00.0,34.5,27.7,12.4,0000.0,0010.87,0003.89,0002.43
2023-05-01 14:21:00,,0828.5,4.99,0.00,26.2,24.6,00.0,34.5,27.7,12.5,0000.0,0010.98,0003.91,0002.44
2023-05-01 14:22:00,,0828.6,5.00,0.00,26.2,24.6,00.0,34.5,27.7,12.8,0000.0,0010.79,0003.88,0002.43
2023-05-01 14:23:00,,0828.5,5.00,0.00,26.2,24.6,00.0,34.5,27.7,12.8,0000.0,0010.73,0003.92,0002.44
2023-05-01 14:24:00,,0828.5,5.01,0.00,26.2,24.7,00.0,34.5,27.7,13.0,0000.0,0010.70,0003.94,0002.45
2023-05-01 14:25:00,,0828.6,5.00,0.00,26.2,24.7,00.0,34.5,27.7,13.0,0000.0,0010.90,0003.89,0002.46
2023-05-01 14:26:00,,0828.6,5.00,0.00,26.2,24.7,00.0,34.5,27.8,13.0,0000.0,0011.03,0003.91,0002.48
2023-05-01 14:27:00,,0828.6,5.00,0.00,26.2,24.7,00.0,34.5,27.8,12.9,0000.0,0010.60,0003.91,0002.50
2023-05-01 14:28:00,,0828.5,5.00,0.00,26.2,24.7,00.0,34.5,27.7,12.7,0000.0,0009.95,0003.93,0002.51
2023-05-01 14:29:00,,0828.5,5.00,0.00,26.2,24.7,00.0,34.5,27.7,13.0,0000.0,0009.94,0003.96,0002.53
2023-05-01 14:30:00,,0828.5,5.00,0.00,26.2,24.7,00.0,34.5,27.7,13.0,0000.0,0010.01,0003.95,0002.56
2023-05-01 14:31:00,,0828.6,4.99,0.00,26.2,24.6,00.0,34.5,27.7,13.3,0000.0,0010.49,0003.98,0002.58
2023-05-01 14:32:00,,0828.6,4.99,0.00,26.1,24.6,00.0,34.5,27.7,13.2,0000.0,0010.68,0004.03,0002.62
2023-05-01 14:33:00,,0828.6,5.00,0.00,26.1,24.6,00.0,34.5,27.7,13.1,0000.0,0010.70,0004.04,0002.65
2023-05-01 14:34:00,,0828.5,5.00,0.00,26.1,24.6,00.0,34.5,27.7,13.2,0000.0,0010.70,0004.01,0002.66
2023-05-01 14:35:00,,0828.5,5.00,0.00,26.1,24.6,00.0,34.5,27.7,13.1,0000.0,0010.64,0003.99,0002.67
2023-05-01 14:36:00,,0828.6,5.00,0.00,26.1,24.6,00.0,34.5,27.7,13.1,0000.0,0010.86,0003.99,0002.68
2023-05-01 14:37:00,,0828.5,5.00,0.00,26.2,24.6,00.0,34.5,27.7,13.1,0000.0,0010.59,0004.07,0002.72
2023-05-01 14:38:00,,0828.6,5.00,0.00,26.2,24.7,00.0,34.5,27.7,13.1,0000.0,0010.76,0004.09,0002.79
2023-05-01 14:39:00,,0828.5,5.00,0.00,26.1,24.6,00.0,34.5,27.7,13.1,0000.0,0011.25,0004.12,0002.88
2023-05-01 14:40:00,,0828.5,5.00,0.00,26.1,24.6,00.0,34.5,27.7,13.1,0000.0,0011.60,0004.16,0002.92
2023-05-01 14:41:00,,0828.6,5.00,0.00,26.1,24.6,00.0,34.5,27.7,13.2,0000.0,0012.64,0004.18,0002.95
2023-05-01 14:42:00,,0828.6,5.00,0.00,26.1,24.6,00.0,34.5,27.7,13.1,0000.0,0012.61,0004.19,0002.96
2023-05-01 14:43:00,,0828.6,5.00,0.00,26.1,24.6,00.0,34.5,27.7,13.0,0000.0,0012.57,0004.17,0002.96
2023-05-01 14:44:00,,0828.6,5.00,0.00,26.2,24.7,00.0,34.5,27.7,13.2,0000.0,0012.66,0004.20,0002.98
2023-05-01 14:45:00,,0828.6,5.00,0.00,26.2,24.7,00.0,34.5,27.7,13.3,0000.0,0012.71,0004.24,0003.01
2023-05-01 14:46:00,,0828.6,5.00,0.00,26.2,24.7,00.0,34.5,27.7,13.2,0000.0,0012.48,0004.27,0003.05
2023-05-01 14:47:00,,0828.6,5.00,0.00,26.2,24.7,00.0,34.5,27.7,13.2,0000.0,0012.37,0004.28,0003.07
2023-05-01 14:48:00,,0828.6,5.00,0.00,26.1,24.7,00.0,34.5,27.7,13.2,0000.0,0012.76,0004.28,0003.08
2023-05-01 14:49:00,,0828.6,5.01,0.00,26.1,24.7,00.0,34.5,27.7,13.3,0000.0,0013.33,0004.28,0003.05
2023-05-01 14:50:00,,0828.5,5.00,0.00,26.2,24.7,00.0,34.5,27.7,13.2,0000.0,0013.94,0004.27,0003.02
2023-05-01 14:51:00,,0828.5,5.00,0.00,26.2,24.7,00.0,34.5,27.7,13.3,0000.0,0014.02,0004.30,0003.04
2023-05-01 14:52:00,,0828.5,5.00,0.00,26.2,24.7,00.0,34.5,27.7,13.3,0000.0,0014.03,0004.32,0003.07
2023-05-01 14:53:00,,0828.5,5.00,0.00,26.2,24.7,00.0,34.5,27.7,13.4,0000.0,0013.98,0004.34,0003.10
2023-05-01 14:54:00,,0828.5,5.00,0.00,26.2,24.7,00.0,34.5,27.7,13.5,0000.0,0013.50,0004.39,0003.13
2023-05-01 14:55:00,,0828.5,5.00,0.00,26.2,24.7,00.0,34.5,27.7,13.3,0000.0,0013.52,0004.42,0003.14
2023-05-01 14:56:00,,0828.4,5.00,0.00,26.2,24.7,00.0,34.5,27.8,13.4,0000.0,0013.49,0004.44,0003.16
2023-05-01 14:57:00,,0828.4,5.00,0.00,26.2,24.7,00.0,34.5,27.8,13.6,0000.0,0013.69,0004.47,0003.18
2023-05-01 14:58:00,,0828.4,5.00,0.00,26.2,24.7,00.0,34.5,27.7,13.7,0000.0,0013.71,0004.50,0003.21
2023-05-01 14:59:00,,0828.5,5.00,0.00,26.2,24.7,00.0,34.5,27.7,13.5,0000.0,0013.32,0004.53,0003.23
